VK3AFQ-13 Weather Reports


time (UTC)temp
C
wind
direction
speed
KPH
gust
KPH
rain 1hr
cm
rain 24hr
cm
rain mn
cm
humidity
%
barometer
mb
20260504044603 18 128 4.8 12.9 0.00 0.00 0.00 65 1012.5
20260504043103 17 128 6.4 16.1 0.00 0.00 0.00 65 1012.5
20260504041603 18 128 8.0 12.9 0.00 0.00 0.00 63 1012.5
20260504034604 18 128 6.4 16.1 0.00 0.00 0.00 65 1012.5
20260504033104 18 129 6.4 14.5 0.00 0.00 0.00 65 1012.7
20260504031604 18 128 6.4 17.7 0.00 0.00 0.00 65 1012.9
20260504024603 17 128 9.7 14.5 0.00 0.00 0.00 66 1013.4
20260504023103 17 128 9.7 22.5 0.00 0.00 0.00 66 1013.5
20260504021604 17 128 6.4 14.5 0.00 0.00 0.00 69 1013.5
20260504014604 17 128 4.8 16.1 0.00 0.00 0.00 68 1013.7
20260504013103 16 128 6.4 12.9 0.00 0.00 0.00 70 1013.9
20260504011603 16 128 3.2 12.9 0.00 0.00 0.00 71 1014.1
20260504004604 16 128 9.7 12.9 0.00 0.00 0.00 69 1014.2
20260504003104 16 128 4.8 14.5 0.00 0.00 0.00 72 1014.2
20260504001603 16 128 8.0 14.5 0.00 0.00 0.00 73 1014.2
20260503234604 15 128 6.4 16.1 0.00 0.00 0.00 73 1014.1
20260503233104 15 128 4.8 11.3 0.00 0.00 0.00 74 1014.2
20260503231604 14 128 4.8 12.9 0.00 0.00 0.00 76 1014.2
20260503224603 12 128 9.7 12.9 0.00 0.00 0.00 81 1014.1
20260503223103 12 128 6.4 9.7 0.00 0.00 0.00 81 1014.0
20260503221603 11 128 3.2 8.0 0.00 0.00 0.00 82 1014.1
20260503214604 10 128 0.0 3.2 0.00 0.00 0.00 85 1013.9
20260503213104 10 0 0.0 3.2 0.00 0.00 0.00 85 1013.8
20260503211604 10 0 0.0 4.8 0.00 0.00 0.00 85 1013.5
20260503204603 10 128 3.2 4.8 0.00 0.00 0.00 84 1013.2
20260503203103 10 128 4.8 6.4 0.00 0.00 0.00 84 1013.0
20260503201603 10 129 1.6 6.4 0.00 0.00 0.00 84 1012.8
20260503194604 10 0 0.0 4.8 0.00 0.00 0.00 84 1012.8
20260503193103 10 128 3.2 4.8 0.00 0.00 0.00 84 1012.8
20260503191604 10 128 1.6 3.2 0.00 0.00 0.00 85 1012.8
20260503184604 10 128 4.8 6.4 0.00 0.00 0.00 85 1012.7
20260503183103 10 128 1.6 4.8 0.00 0.00 0.00 86 1012.9
20260503181604 10 0 0.0 4.8 0.00 0.00 0.00 88 1012.7
20260503174603 10 129 1.6 3.2 0.00 0.00 0.00 88 1012.5
20260503173103 10 128 0.0 3.2 0.00 0.00 0.00 88 1012.8
20260503171604 10 128 1.6 4.8 0.00 0.00 0.00 88 1012.9
20260503081604 16 0 0.0 0.0 0.00 0.00 0.00 73 1013.1
20260503071603 17 128 3.2 6.4 0.00 0.00 0.00 68 1012.7
20260503054604 17 128 3.2 8.0 0.00 0.00 0.00 74 1012.8
20260503053104 18 128 3.2 9.7 0.00 0.00 0.00 73 1012.8